Location: *
(50.8160°S, 176.0219°W)
Time: 02:25:50
(UTC+00:00)

Cosmos 1980 Rocket - Pass Details

Date: 19 May 2026
Orbit: 827 x 850 km, 71.0° (Epoch: 8 June)

Event Time Altitude Azimuth Distance (km) Brightness Sun altitude
Exits shadow 15:57:54 13° 180° (S) 2,282 4.5 -31.4°
Maximum altitude 16:00:29 17° 150° (SSE) 2,039 4.5 -31.0°
Drops below altitude 10° 16:04:01 10° 111° (ESE) 2,465 5.5 -30.4°
Sets 16:07:26 0° 90° (E) 3,396 6.5 -29.9°
